Location: Radomski Observatory
(40.2854°N, 79.5145°W)
Time: 12:23:29
(UTC-04:00)

Daily predictions for brighter satellites

Satellite Brightness Start Highest point End
(mag) Time Altitude Azimuth Time Altitude Azimuth Time Altitude Azimuth
BREEZE-M DEB (TANK) 4.4 20:58:15 10° WNW 21:02:17 66° SSW 21:16:19 10° SE
Cosmos 2056 Rocket 4.5 21:04:40 10° N 21:09:16 31° ENE 21:13:47 10° SE
USA 81 4.2 21:05:09 10° S 21:10:26 83° W 21:15:45 10° N
Envisat 3.1 21:05:52 10° SSE 21:10:54 69° ENE 21:15:58 10° N
DNEPR-1 R/B 3.8 21:10:37 10° NW 21:14:53 72° WSW 21:19:34 10° SSE
Cosmos 2082 Rocket 3.5 21:12:04 10° SE 21:15:57 19° E 21:19:50 10° NE
SAR-Lupe-4 3.8 21:12:28 10° SSE 21:15:58 53° ENE 21:19:30 10° N
COSMOS 2406 3.9 21:13:38 10° SW 21:19:17 61° WNW 21:24:56 10° NNE
Okean 1-7 Rocket 3.7 21:18:24 10° S 21:22:45 56° E 21:27:11 10° NNE
YAOGAN 6 3.2 21:20:12 10° SE 21:23:28 39° ENE 21:26:47 10° N
Cosmos 1743 3.4 21:19:38 10° NNW 21:23:29 57° W 21:27:18 10° S
Okean 2 4.0 21:21:46 10° SSE 21:25:32 38° E 21:29:20 10° NNE
Cosmos 1606 Rocket 4.5 21:23:08 10° NNE 21:27:00 31° ENE 21:30:35 11° SE
Cosmos 1025 Rocket 3.0 21:26:38 10° S 21:30:49 60° E 21:35:01 10° NNE
SPOT 5 4.2 21:28:06 10° ESE 21:31:15 20° ENE 21:34:29 10° NNE
CZ-4B DEB 2.5 21:29:12 10° SSE 21:32:10 86° ENE 21:35:10 10° N
SAR-Lupe-1 4.0 21:28:38 10° SSE 21:32:13 75° ENE 21:35:48 10° N
Meteor 1-15 Rocket 4.4 21:27:00 10° N 21:32:29 55° ENE 21:37:55 10° SSE
Cosmos 1697 Rocket 4.3 21:29:18 10° N 21:33:30 21° NE 21:37:41 10° ESE
Cosmos 1726 Rocket 4.4 21:32:02 10° NNE 21:35:56 32° ENE 21:39:06 14° SE
Cosmos 405 2.9 21:34:19 10° N 21:37:53 88° ENE 21:41:25 10° S
Cosmos 2369 4.3 21:33:23 10° N 21:38:50 43° ENE 21:43:25 14° SE
USA 186 4.1 21:37:59 10° SSW 21:40:31 22° W 21:42:59 10° NW
Cosmos 1666 3.5 21:37:12 10° NNW 21:40:51 51° W 21:44:29 10° S
COSMOS 2487 3.3 21:37:51 10° SSE 21:41:00 30° ESE 21:44:11 10° NE
CENTAUR R/B 4.1 21:35:09 10° NW 21:42:35 42° WSW 21:50:19 10° S
Meteor 2-9 Rocket 4.4 21:40:01 10° NNW 21:45:33 77° W 21:51:13 10° S
ERS-1 Rocket 3.1 21:41:26 12° SSE 21:46:02 61° ENE 21:51:00 10° N
USA 245 4.3 21:47:12 13° E 21:47:34 14° ENE 21:48:51 10° NE
Cosmos 1833 Rocket 3.3 21:43:45 10° SSE 21:48:43 34° ESE 21:53:43 10° NE
Cosmos 1371 Rocket 4.1 21:43:58 10° NNW 21:49:18 86° WSW 21:54:08 12° SSE
Cosmos 1238 Rocket 4.3 21:43:49 10° S 21:50:35 78° W 21:56:58 10° N
CRYOSAT 2 4.3 21:46:22 10° S 21:51:12 83° E 21:56:05 10° N
ISS -1.1 21:48:32 10° WNW 21:51:14 23° NNW 21:53:56 10° NNE
OAO 2 Rocket 4.0 21:46:58 10° W 21:51:31 38° SSW 21:54:39 18° SE
OE (NEXTSAT) 4.4 21:49:10 10° WNW 21:52:44 73° SSW 21:54:57 21° SE
Cosmos 2058 Rocket 3.7 21:51:40 10° N 21:55:51 40° ENE 21:58:30 20° SE
YAOGAN 11 4.4 22:02:03 21° SE 22:04:42 51° ENE 22:08:55 10° N
Cosmos 2181 Rocket 4.1 21:58:41 10° S 22:04:56 62° E 22:11:07 10° NNE
ASTEX 1 3.7 22:01:18 10° S 22:06:09 65° W 22:11:02 10° NNW
Cosmos 1939 Rocket 4.4 22:02:50 10° SSW 22:06:19 32° W 22:09:49 10° NNW
Cosmos 1437 Rocket 2.9 22:02:28 10° NNW 22:06:20 74° W 22:09:19 17° S
Intercosmos 24 4.1 22:04:48 10° NNW 22:08:26 58° W 22:11:24 14° S
Cosmos 1515 3.6 22:09:19 13° S 22:12:41 88° W 22:16:31 10° N
H-2A R/B 4.0 22:11:41 14° E 22:13:29 18° ENE 22:16:30 10° NNE
Cosmos 1980 Rocket 3.4 22:17:58 10° N 22:22:55 30° ENE 22:25:49 19° ESE
Cosmos 1626 Rocket 4.2 22:21:47 29° SE 22:22:59 35° E 22:26:56 10° NNE
ARGOS 3.1 22:20:51 23° SSE 22:24:19 79° ENE 22:29:46 10° N
TELKOM 3 3.3 22:31:11 10° NW 22:33:36 83° NE 22:33:54 68° ESE
Cosmos 2228 2.9 22:29:37 10° N 22:33:56 90° W 22:35:49 33° S
Cosmos 2322 Rocket 4.3 22:31:02 10° NNE 22:34:16 15° NE 22:37:30 10° E
Cosmos 921 Rocket 3.5 22:30:19 10° NNW 22:34:41 55° WSW 22:37:02 25° S
Tiangong 2 1.7 22:35:12 10° WNW 22:38:20 54° N 22:39:21 35° ENE
H-2A R/B 2.0 22:38:01 33° SSE 22:40:11 69° ENE 22:45:14 10° N
SL-8 Rocket 4.0 22:34:11 10° N 22:40:29 84° E 22:44:11 27° S
Landsat 7 4.1 22:40:00 35° SE 22:41:41 52° ENE 22:46:18 10° N
Cosmos 1766 4.0 22:38:38 10° N 22:42:14 34° ENE 22:42:35 33° E
Cosmos 2366 rocket 3.9 22:41:14 10° N 22:47:24 70° E 22:50:17 33° SSE
CZ-3A R/B 2.8 22:48:53 10° W 22:50:55 18° NW 22:51:30 16° NNW
Lacrosse 5 rocket 4.0 22:52:44 10° NNW 22:55:55 18° NNE 22:59:06 10° ENE
Terra 2.1 22:55:30 41° ESE 22:56:42 51° ENE 23:01:19 10° N
Meteor 1-4 Rocket 2.5 22:54:18 10° NNW 22:57:52 69° W 22:58:16 61° SW
Cosmos 1602 Rocket 3.4 22:57:24 46° S 22:58:40 88° E 23:03:00 10° N
Cosmos 2082 Rocket 2.8 22:53:56 10° SW 22:59:31 58° WNW 23:05:06 10° NNE
Cosmos 1269 Rocket 3.9 23:01:07 37° S 23:03:11 73° ESE 23:08:29 10° NNE
Cosmos 1420 Rocket 3.9 23:02:10 10° NNW 23:07:27 84° WSW 23:08:59 47° S
SPOT 5 3.9 23:07:21 24° SW 23:09:07 34° W 23:13:06 10° NNW
DMSP B5D2-2 4.0 23:04:31 10° NNE 23:09:50 88° ESE 23:11:58 38° SSW
Cosmos 1048 Rocket 3.8 23:08:12 37° SSW 23:10:18 87° ESE 23:15:30 10° NNE
Cosmos 1805 4.0 23:07:16 10° N 23:10:42 39° ENE 23:10:42 39° ENE
Meteor 2-14 Rocket 4.3 23:07:26 10° N 23:13:33 87° E 23:15:45 42° S
deb Chang Zheng 4 3.5 23:10:02 10° NNE 23:14:19 63° E 23:14:27 62° ESE
Cosmos 1656 4.5 23:11:20 10° NW 23:16:26 41° WSW 23:18:29 30° SSW
Meteor 1-22 Rocket 4.2 23:12:13 10° NNW 23:17:32 70° W 23:19:21 42° SSW
Cosmos 1697 Rocket 2.9 23:12:21 10° NNW 23:17:53 59° WSW 23:19:38 41° SSW
Cosmos 1758 4.2 23:14:40 10° N 23:18:04 37° ENE 23:18:04 37° ENE
Cosmos 389 Rocket 4.1 23:16:18 10° NNE 23:18:31 25° NE 23:18:31 25° NE
Spot 4 4.2 23:21:37 46° E 23:22:14 49° ENE 23:26:52 10° N
Cosmos 1452 Rocket 4.5 23:18:20 10° NW 23:23:12 38° WSW 23:25:00 29° SW
Lacrosse 5 3.1 23:25:30 26° E 23:25:30 26° E 23:28:09 10° ENE
USA 267 4.2 23:18:48 10° ENE 23:22:58 27° ESE 23:22:58 27° ESE
CARTOSAT-1 3.4 23:24:04 71° SSW 23:24:27 79° WSW 23:28:48 10° NNW
Timation 2 Rocket 4.3 23:20:08 11° SW 23:26:17 64° WNW 23:32:24 10° NNE
Cosmos 2360 4.1 23:20:59 10° NNW 23:26:44 80° ENE 23:28:04 54° SE
SL-16 R/B 3.2 23:22:46 10° N 23:27:59 36° ENE 23:29:33 30° E
Iridium 2 3.8 23:24:17 10° N 23:27:42 71° N 23:27:42 71° N
ISS -0.5 23:27:23 10° NNW 23:28:39 12° N 23:29:56 10° NNE
Cosmos 1833 Rocket 4.2 23:27:32 10° WSW 23:32:35 34° WNW 23:37:40 10° N
IGS 5A 3.5 23:32:35 67° WSW 23:32:42 67° WSW 23:36:52 10° NNW
DELTA 2 DEB (DPAF) 4.4 23:34:36 56° ENE 23:34:42 56° ENE 23:39:06 10° N
SL-19 R/B 4.2 23:33:22 10° N 23:38:39 74° WNW 23:40:12 46° SW
ATLAS CENTAUR R/B 2.6 23:35:32 10° N 23:38:30 28° NE 23:38:30 28° NE
Cosmos 1842 3.6 23:38:51 59° WNW 23:38:51 59° WNW 23:42:41 10° N
Cosmos 1271 Rocket 3.2 23:36:59 10° NNW 23:40:35 56° WNW 23:40:35 56° WNW
CZ-4C R/B 4.1 23:45:30 43° NNE 23:45:30 43° NNE 23:48:11 10° N
Cosmos 1758 Rocket 3.8 23:47:43 60° NE 23:47:43 60° NE 23:51:30 10° NNE
Cosmos 2251 Rocket 3.8 23:47:57 53° E 23:47:57 53° E 23:53:01 10° NNE
H-2A R/B 2.8 23:48:48 45° WSW 23:49:06 46° W 23:53:28 10° NNW
Cosmos 1733 4.5 23:46:01 10° N 23:48:41 34° NE 23:48:41 34° NE
Cosmos 1544 4.1 23:46:44 10° NNW 23:49:33 42° NW 23:49:33 42° NW
